EN

Hourly Weather Ontustik

Today, 22 January, Friday

Time Temperature Precipitation Wind Pressure Humidity
00:00 +1°C° 0.6 mm 3 mps 663 mmHg 76%
01:00 +1°C° 0.6 mm 3 mps 663 mmHg 83%
02:00 0°C° 0.6 mm 3 mps 663 mmHg 90%
03:00 -2°C° 2.1 mm 5 mps 664 mmHg 92%
04:00 -5°C° 2.1 mm 6 mps 665 mmHg 94%
05:00 -7°C° 2.1 mm 8 mps 666 mmHg 96%
06:00 -8°C° 1.4 mm 8 mps 667 mmHg 95%
07:00 -11°C° 1.4 mm 8 mps 669 mmHg 95%
08:00 -13°C° 1.4 mm 8 mps 670 mmHg 94%
09:00 -13°C° 0.7 mm 7 mps 671 mmHg 94%
10:00 -12°C° 0.7 mm 6 mps 672 mmHg 95%
11:00 -12°C° 0.7 mm 5 mps 673 mmHg 95%
12:00 -12°C° 0.2 mm 5 mps 674 mmHg 94%
13:00 -12°C° 0.2 mm 5 mps 674 mmHg 93%
14:00 -12°C° 0.2 mm 6 mps 675 mmHg 92%
15:00 -12°C° 0.1 mm 5 mps 675 mmHg 92%
16:00 -12°C° 0.1 mm 5 mps 676 mmHg 92%
17:00 -13°C° 0.1 mm 5 mps 676 mmHg 92%
18:00 -12°C° 0.1 mm 4 mps 676 mmHg 92%
19:00 -13°C° 0.1 mm 3 mps 676 mmHg 92%
20:00 -13°C° 0.1 mm 3 mps 677 mmHg 92%
21:00 -14°C° 0 mm 3 mps 677 mmHg 88%
22:00 -14°C° 0 mm 3 mps 676 mmHg 84%
23:00 -15°C° 0 mm 3 mps 676 mmHg 81%

Tomorrow, 23 January, Saturday

Time Temperature Precipitation Wind Pressure Humidity
00:00 -14°C° 0 mm 3 mps 676 mmHg 81%
01:00 -14°C° 0 mm 3 mps 676 mmHg 81%
02:00 -14°C° 0 mm 4 mps 676 mmHg 81%
03:00 -14°C° 0.1 mm 4 mps 676 mmHg 84%
04:00 -14°C° 0.1 mm 4 mps 676 mmHg 86%
05:00 -14°C° 0.1 mm 4 mps 676 mmHg 89%
06:00 -14°C° 0 mm 4 mps 677 mmHg 86%
07:00 -14°C° 0 mm 4 mps 677 mmHg 83%
08:00 -12°C° 0 mm 4 mps 677 mmHg 80%
09:00 -12°C° 0 mm 5 mps 677 mmHg 78%
10:00 -11°C° 0 mm 5 mps 678 mmHg 75%
11:00 -10°C° 0 mm 6 mps 678 mmHg 72%
12:00 -10°C° 0.1 mm 6 mps 678 mmHg 72%
13:00 -10°C° 0.1 mm 6 mps 678 mmHg 71%
14:00 -9°C° 0.1 mm 7 mps 677 mmHg 71%
15:00 -10°C° 0.1 mm 6 mps 677 mmHg 73%
16:00 -10°C° 0.1 mm 6 mps 677 mmHg 75%
17:00 -10°C° 0.1 mm 6 mps 677 mmHg 77%
18:00 -10°C° 0.2 mm 6 mps 677 mmHg 78%
19:00 -10°C° 0.2 mm 5 mps 678 mmHg 80%
20:00 -10°C° 0.2 mm 5 mps 678 mmHg 82%
21:00 -10°C° 0.2 mm 5 mps 679 mmHg 82%
22:00 -10°C° 0.2 mm 5 mps 679 mmHg 83%
23:00 -9°C° 0.2 mm 4 mps 679 mmHg 83%

Day after tomorrow, 24 January, Sunday

Time Temperature Precipitation Wind Pressure Humidity
00:00 -9°C° 0 mm 4 mps 679 mmHg 83%
01:00 -10°C° 0 mm 4 mps 679 mmHg 83%
02:00 -10°C° 0 mm 4 mps 679 mmHg 82%
03:00 -9°C° 0 mm 3 mps 679 mmHg 81%
04:00 -8°C° 0 mm 2 mps 678 mmHg 81%
05:00 -8°C° 0 mm 2 mps 678 mmHg 80%
06:00 -8°C° 0 mm 2 mps 679 mmHg 80%
07:00 -7°C° 0 mm 1 mps 679 mmHg 80%
08:00 -7°C° 0 mm 1 mps 679 mmHg 81%
09:00 -6°C° 0 mm 1 mps 679 mmHg 81%
10:00 -4°C° 0 mm 1 mps 679 mmHg 81%
11:00 -3°C° 0 mm 1 mps 680 mmHg 81%
12:00 -2°C° 0 mm 1 mps 679 mmHg 82%
13:00 -2°C° 0 mm 1 mps 679 mmHg 82%
14:00 -1°C° 0 mm 1 mps 678 mmHg 83%
15:00 -2°C° 0 mm 1 mps 678 mmHg 83%
16:00 -3°C° 0 mm 1 mps 678 mmHg 83%
17:00 -4°C° 0 mm 1 mps 677 mmHg 83%
18:00 -6°C° 0 mm 1 mps 677 mmHg 78%
19:00 -6°C° 0 mm 1 mps 677 mmHg 73%
20:00 -6°C° 0 mm 1 mps 677 mmHg 68%
21:00 -6°C° 0 mm 1 mps 677 mmHg 65%
22:00 -6°C° 0 mm 1 mps 677 mmHg 62%
23:00 -6°C° 0 mm 1 mps 677 mmHg 59%

25 January, Monday

Time Temperature Precipitation Wind Pressure Humidity
00:00 -6°C° 0 mm 1 mps 676 mmHg 58%
01:00 -6°C° 0 mm 1 mps 676 mmHg 57%
02:00 -6°C° 0 mm 1 mps 676 mmHg 56%
03:00 -6°C° 0 mm 1 mps 676 mmHg 55%
04:00 -6°C° 0 mm 1 mps 675 mmHg 54%
05:00 -6°C° 0 mm 1 mps 675 mmHg 53%
06:00 -6°C° 0 mm 1 mps 675 mmHg 53%
07:00 -6°C° 0 mm 1 mps 675 mmHg 53%
08:00 -6°C° 0 mm 1 mps 676 mmHg 53%
09:00 -3°C° 0 mm 1 mps 676 mmHg 57%
10:00 -1°C° 0 mm 1 mps 676 mmHg 62%
11:00 -1°C° 0 mm 0 mps 677 mmHg 66%
12:00 -1°C° 0 mm 0 mps 676 mmHg 69%
13:00 -1°C° 0 mm 0 mps 676 mmHg 71%
14:00 0°C° 0 mm 0 mps 676 mmHg 74%
15:00 -2°C° 0 mm 0 mps 675 mmHg 74%
16:00 -3°C° 0 mm 0 mps 675 mmHg 75%
17:00 -4°C° 0 mm 0 mps 675 mmHg 75%
18:00 -4°C° 0 mm 1 mps 675 mmHg 72%
19:00 -4°C° 0 mm 1 mps 675 mmHg 68%
20:00 -4°C° 0 mm 1 mps 675 mmHg 65%
21:00 -4°C° 0 mm 1 mps 675 mmHg 62%
22:00 -6°C° 0 mm 2 mps 675 mmHg 60%
23:00 -6°C° 0 mm 2 mps 675 mmHg 58%

26 January, Tuesday

Time Temperature Precipitation Wind Pressure Humidity
00:00 -6°C° 0 mm 2 mps 675 mmHg 57%
01:00 -6°C° 0 mm 2 mps 675 mmHg 56%
02:00 -6°C° 0 mm 2 mps 674 mmHg 54%
03:00 -6°C° 0 mm 2 mps 674 mmHg 54%
04:00 -4°C° 0 mm 1 mps 674 mmHg 53%
05:00 -4°C° 0 mm 1 mps 674 mmHg 52%
06:00 -4°C° 0 mm 1 mps 674 mmHg 51%
07:00 -6°C° 0 mm 2 mps 675 mmHg 51%
08:00 -6°C° 0 mm 2 mps 675 mmHg 50%
09:00 -2°C° 0 mm 1 mps 675 mmHg 55%
10:00 -1°C° 0 mm 1 mps 676 mmHg 61%
11:00 0°C° 0 mm 0 mps 676 mmHg 66%
12:00 0°C° 0 mm 0 mps 676 mmHg 68%
13:00 0°C° 0 mm 0 mps 675 mmHg 70%
14:00 +1°C° 0 mm 0 mps 675 mmHg 72%
15:00 0°C° 0 mm 1 mps 675 mmHg 70%
16:00 -1°C° 0 mm 1 mps 675 mmHg 68%
17:00 -2°C° 0 mm 1 mps 674 mmHg 66%
18:00 -2°C° 0 mm 1 mps 675 mmHg 63%
19:00 -4°C° 0 mm 2 mps 675 mmHg 59%
20:00 -5°C° 0 mm 2 mps 675 mmHg 55%
21:00 -5°C° 0 mm 2 mps 675 mmHg 53%
22:00 -5°C° 0 mm 2 mps 675 mmHg 51%
23:00 -5°C° 0 mm 2 mps 675 mmHg 49%

27 January, Wednesday

Time Temperature Precipitation Wind Pressure Humidity
00:00 -5°C° 0 mm 2 mps 675 mmHg 48%
01:00 -5°C° 0 mm 2 mps 674 mmHg 46%
02:00 -5°C° 0 mm 2 mps 674 mmHg 45%
03:00 -5°C° 0 mm 2 mps 674 mmHg 44%
04:00 -5°C° 0 mm 2 mps 674 mmHg 43%
05:00 -5°C° 0 mm 2 mps 674 mmHg 43%
06:00 -5°C° 0 mm 2 mps 674 mmHg 43%
07:00 -5°C° 0 mm 2 mps 674 mmHg 43%
08:00 -5°C° 0 mm 2 mps 675 mmHg 43%
09:00 -3°C° 0 mm 2 mps 675 mmHg 50%
10:00 0°C° 0 mm 1 mps 675 mmHg 57%
11:00 +2°C° 0 mm 1 mps 676 mmHg 63%
12:00 +2°C° 0 mm 1 mps 675 mmHg 66%
13:00 +1°C° 0 mm 0 mps 675 mmHg 68%
14:00 +2°C° 0 mm 0 mps 675 mmHg 71%
15:00 +2°C° 0 mm 1 mps 675 mmHg 67%
16:00 0°C° 0 mm 1 mps 675 mmHg 62%
17:00 -1°C° 0 mm 1 mps 674 mmHg 58%
18:00 -3°C° 0 mm 2 mps 675 mmHg 55%
19:00 -3°C° 0 mm 2 mps 675 mmHg 51%
20:00 -4°C° 0 mm 2 mps 675 mmHg 47%
21:00 -4°C° 0 mm 2 mps 675 mmHg 45%
22:00 -4°C° 0 mm 2 mps 675 mmHg 43%
23:00 -4°C° 0 mm 2 mps 675 mmHg 41%
Show more

We Need Your Consent

Meteoprog and our Service Providers may store and access personal data such as cookies, device identifiers or other similar technologies on your device and process such data to personalise content and ads, as well as provide social media features and to analyse the traffic.

  • Store and/or access information on your device

    Cookies, device identifiers or other information can be stored or accessed on your device for the purposes indicated above.

  • Personalised ads and content, ad and content measurement, audience insights, and products development

    Ads and content can be personalised based on a profile. More data can be added to better personalise ads and content. Ad and content performance can be measured. Insights about the audience who saw the ads and content can be derived. Such data can be used to develop or improve user’s experience, systems and software.

By clicking ‘I Agree’ you will allow the use of indicated cookies, device identifiers, web beacons or other similar technologies. Your settings can be changed in the browser on your device.

For certain purposes, legitimate interests may be relied on, rather than consent. You can read more about this in our Privacy and Cookie Policy.